Location: R�serve Fauniques des Laurentides
(47.3100°N, 71.1900°W)
Time: 08:44:45
(UTC-04:00)

Amateur Radio Satellites - All Passes

Search period start: 24 October 2014 08:14
Search period end: 25 October 2014 08:14
Location: R�serve Fauniques des Laurentides, 47.3100°N, 71.1900°W

Satellite Date Start Highest point End Downlink Frequencies (MHz)
Time Altitude Azimuth
STRAND 1 24 Oct 08:32:18 08:33:14 10° 275° (W) 08:34:10 ?
Saudisat 1A 24 Oct 08:41:46 08:46:08 65° 311° (NW) 08:50:32 436.775 MHz
UKube-1 24 Oct 09:13:54 09:15:28 12° 88° (E) 09:17:01 145.840 MHz, 145.915 MHz
RS-15 24 Oct 09:27:19 09:35:57 27° 257° (WSW) 09:44:53 29.354 - 29.394 USB, Beacon 29.352 USB
MaSat-1 24 Oct 09:39:55 09:42:20 30° 248° (WSW) 09:44:34 437.345 MHz
HO-68 24 Oct 09:43:35 09:50:45 62° 103° (ESE) 09:57:50 435.675 MHz FM
FUNcube-1 24 Oct 09:52:07 09:53:40 12° 87° (E) 09:55:12 145.950 - 145.970 MHz USB
Oscar 11 24 Oct 09:54:18 09:58:04 28° 95° (E) 10:01:47 145.825 FM, Beacon 2401.500 USB
PCSat 24 Oct 09:57:20 09:58:54 11° 17° (NNE) 10:00:29 145.825 MHz
Saudisat 1A 24 Oct 10:23:48 10:26:33 16° 332° (NNW) 10:29:19 436.775 MHz
ZACube-1 24 Oct 10:41:33 10:45:34 38° 97° (E) 10:49:29 437.345 MHz
UKube-1 24 Oct 10:47:50 10:52:14 80° 286° (WNW) 10:56:35 145.840 MHz, 145.915 MHz
KITSAT 1 24 Oct 10:51:46 10:56:25 17° 100° (E) 11:01:03 435.175 FM
Sapphire 24 Oct 11:16:59 11:21:11 22° 36° (NE) 11:25:22 437.095 MHz 1200 baud AX-25 AFSK
FUNcube-1 24 Oct 11:26:20 11:30:38 74° 286° (WNW) 11:34:48 145.950 - 145.970 MHz USB
Oscar 19 24 Oct 11:30:24 11:31:59 11° 53° (NE) 11:33:34 437.125 CW, 437.150 USB
Oscar 11 24 Oct 11:30:26 11:34:15 31° 293° (WNW) 11:38:02 145.825 FM, Beacon 2401.500 USB
HO-68 24 Oct 11:31:51 11:38:04 33° 303° (WNW) 11:44:16 435.675 MHz FM
PCSat 24 Oct 11:39:26 11:44:12 30° 42° (NE) 11:48:56 145.825 MHz
Oscar 16 24 Oct 12:12:55 12:17:05 26° 62° (ENE) 12:21:15 437.025 USB, Beacon 2401.1428
AO-Echo 24 Oct 12:14:32 12:17:06 14° 55° (NE) 12:19:42 ?
ZACube-1 24 Oct 12:18:21 12:21:47 24° 296° (WNW) 12:25:08 437.345 MHz
JAS-1B 24 Oct 12:22:34 12:27:24 28° 61° (ENE) 12:32:09 435.800 - 435.900 CW/SSB
UKube-1 24 Oct 12:26:30 12:27:40 11° 304° (NW) 12:28:49 145.840 MHz, 145.915 MHz
SO-50 24 Oct 12:31:03 12:34:35 23° 113° (ESE) 12:38:12 436.795 FM
Uribyol 2 24 Oct 12:32:19 12:35:50 19° 57° (ENE) 12:39:20 436.500 FM
ITAMSAT 1 24 Oct 12:38:04 12:41:41 19° 58° (ENE) 12:45:19 435.822 SSB
KITSAT 1 24 Oct 12:42:24 12:50:26 74° 120° (ESE) 12:58:30 435.175 FM
Gurwin Techsat 1B 24 Oct 12:55:25 12:58:27 16° 55° (NE) 13:01:29 435.225 FM
Sapphire 24 Oct 12:59:54 13:05:23 89° 57° (ENE) 13:10:49 437.095 MHz 1200 baud AX-25 AFSK
Oscar 19 24 Oct 13:05:17 13:10:23 66° 72° (ENE) 13:15:29 437.125 CW, 437.150 USB
TMSAT-1 24 Oct 13:07:12 13:10:04 15° 55° (NE) 13:12:56 436.925 FM
ISS 24 Oct 13:13:00 13:16:02 33° 143° (SE) 13:19:05 145.800 FM
AO-27 24 Oct 13:21:55 13:26:48 42° 67° (ENE) 13:31:43 436.795 MHz FM
PCSat 24 Oct 13:22:38 13:27:58 59° 242° (WSW) 13:33:17 145.825 MHz
Oscar 10/S400 24 Oct 13:34:33 13:50:02 28° 150° (SSE) 14:09:40 145.825 - 145.975 CW/USB, Beacon 145.810 USB
AO-7 24 Oct 13:37:03 13:42:24 19° 42° (NE) 13:47:46 29.400 - 29.500 MHz
Saudisat 1A 24 Oct 13:47:48 13:49:40 12° 22° (NNE) 13:51:31 436.775 MHz
AO-Echo 24 Oct 13:50:09 13:55:04 86° 75° (ENE) 14:00:11 ?
Oscar 16 24 Oct 13:51:08 13:56:09 51° 260° (W) 14:01:11 437.025 USB, Beacon 2401.1428
UOSAT-12 24 Oct 13:58:13 14:01:14 17° 111° (ESE) 14:04:18 437.025 FM, 437.400 FM
Uribyol 2 24 Oct 14:09:29 14:14:43 76° 256° (WSW) 14:19:59 436.500 FM
SO-50 24 Oct 14:10:21 14:14:47 54° 313° (NW) 14:19:24 436.795 FM
JAS-1B 24 Oct 14:12:15 14:17:56 47° 260° (W) 14:23:25 435.800 - 435.900 CW/SSB
ITAMSAT 1 24 Oct 14:15:26 14:20:38 72° 257° (WSW) 14:25:53 435.822 SSB
Gurwin Techsat 1B 24 Oct 14:32:20 14:37:39 87° 75° (ENE) 14:43:01 435.225 FM
KITSAT 1 24 Oct 14:39:07 14:46:31 38° 324° (NW) 14:53:57 435.175 FM
TMSAT-1 24 Oct 14:43:53 14:49:12 83° 74° (ENE) 14:54:32 436.925 FM
Sapphire 24 Oct 14:44:58 14:48:02 15° 256° (WSW) 14:51:05 437.095 MHz 1200 baud AX-25 AFSK
Oscar 19 24 Oct 14:46:41 14:50:12 18° 270° (W) 14:53:43 437.125 CW, 437.150 USB
ISS 24 Oct 14:49:20 14:52:38 57° 342° (NNW) 14:55:57 145.800 FM
AO-27 24 Oct 15:01:56 15:06:27 29° 265° (W) 15:11:00 436.795 MHz FM
AO-7 24 Oct 15:25:35 15:33:43 66° 65° (ENE) 15:41:54 29.400 - 29.500 MHz
Saudisat 1A 24 Oct 15:26:13 15:30:25 40° 44° (NE) 15:34:36 436.775 MHz
AO-Echo 24 Oct 15:32:18 15:34:35 13° 274° (W) 15:36:54 ?
Uosat F 24 Oct 15:34:55 15:39:38 42° 67° (ENE) 15:44:22 435.120 FM
UOSAT-12 24 Oct 15:36:11 15:40:50 73° 310° (NW) 15:45:36 437.025 FM, 437.400 FM
SO-50 24 Oct 15:53:38 15:56:24 15° 336° (NNW) 15:59:14 436.795 FM
Uribyol 2 24 Oct 15:53:53 15:55:04 11° 275° (W) 15:56:16 436.500 FM
Gurwin Techsat 1B 24 Oct 16:15:38 16:18:21 14° 273° (W) 16:21:05 435.225 FM
JAS-2 24 Oct 16:18:51 16:24:18 34° 60° (ENE) 16:30:22 435.800 - 435.900 CW/SSB, 435.910 FM
ISS 24 Oct 16:26:33 16:29:42 37° 2° (N) 16:32:52 145.800 FM
TMSAT-1 24 Oct 16:26:52 16:29:48 15° 272° (W) 16:32:44 436.925 FM
KITSAT 1 24 Oct 16:38:47 16:44:34 21° 352° (N) 16:50:21 435.175 FM
Hamsat 24 Oct 17:02:23 17:06:14 36° 69° (ENE) 17:10:05 145.90 MHz
Saudisat 1A 24 Oct 17:06:00 17:09:54 31° 243° (WSW) 17:13:46 436.775 MHz
OPAL 24 Oct 17:12:26 17:16:15 22° 94° (E) 17:20:01 ?
Uosat F 24 Oct 17:14:16 17:18:33 28° 265° (W) 17:22:53 435.120 FM
UOSAT-12 24 Oct 17:18:30 17:21:49 19° 331° (NNW) 17:25:09 437.025 FM, 437.400 FM
AO-7 24 Oct 17:19:49 17:27:02 33° 265° (W) 17:34:19 29.400 - 29.500 MHz
JAS-2 24 Oct 18:03:19 18:09:06 50° 263° (W) 18:15:43 435.800 - 435.900 CW/SSB, 435.910 FM
ISS 24 Oct 18:03:22 18:06:43 73° 22° (NNE) 18:10:03 145.800 FM
SO-67 24 Oct 18:30:01 18:33:14 38° 72° (ENE) 18:36:28 435.3500 MHz FM
HO-68 24 Oct 18:31:41 18:35:44 16° 46° (NE) 18:39:48 435.675 MHz FM
KITSAT 1 24 Oct 18:36:39 18:43:11 26° 22° (NNE) 18:49:40 435.175 FM
Hamsat 24 Oct 18:38:55 18:42:18 23° 267° (W) 18:45:40 145.90 MHz
OPAL 24 Oct 18:50:36 18:55:28 53° 293° (WNW) 19:00:15 ?
STRAND 1 24 Oct 18:55:50 19:00:18 29° 95° (E) 19:04:44 ?
SO-50 24 Oct 19:18:39 19:21:38 16° 26° (NNE) 19:24:39 436.795 FM
ISS 24 Oct 19:40:26 19:43:10 23° 220° (SW) 19:45:53 145.800 FM
SO-67 24 Oct 20:04:24 20:06:24 15° 269° (W) 20:08:25 435.3500 MHz FM
UKube-1 24 Oct 20:11:55 20:14:44 17° 60° (ENE) 20:17:33 145.840 MHz, 145.915 MHz
HO-68 24 Oct 20:15:05 20:22:07 63° 67° (ENE) 20:29:12 435.675 MHz FM
KITSAT 1 24 Oct 20:32:16 20:40:19 63° 48° (NE) 20:48:18 435.175 FM
STRAND 1 24 Oct 20:34:46 20:39:37 42° 293° (WNW) 20:44:26 ?
UOSAT-12 24 Oct 20:43:49 20:46:10 13° 20° (NNE) 20:48:31 437.025 FM, 437.400 FM
FUNcube-1 24 Oct 20:50:53 20:53:50 17° 61° (ENE) 20:56:45 145.950 - 145.970 MHz USB
Oscar 11 24 Oct 20:52:18 20:56:12 34° 68° (ENE) 21:00:06 145.825 FM, Beacon 2401.500 USB
SO-50 24 Oct 20:58:29 21:03:14 55° 47° (NE) 21:08:01 436.795 FM
ZACube-1 24 Oct 21:40:34 21:44:58 48° 71° (ENE) 21:49:19 437.345 MHz
AO-40 24 Oct 21:41:27 23:21:49 19° 220° (SW) 02:10:51 Beacon 2401.320
RS-15 24 Oct 21:41:41 21:51:40 43° 110° (ESE) 22:01:36 29.354 - 29.394 USB, Beacon 29.352 USB
UKube-1 24 Oct 21:46:10 21:50:28 61° 258° (WSW) 21:54:49 145.840 MHz, 145.915 MHz
HO-68 24 Oct 22:04:13 22:10:17 29° 267° (W) 22:16:25 435.675 MHz FM
UOSAT-12 24 Oct 22:23:06 22:27:36 40° 43° (NE) 22:32:01 437.025 FM, 437.400 FM
FUNcube-1 24 Oct 22:25:12 22:29:45 65° 259° (WSW) 22:34:15 145.950 - 145.970 MHz USB
KITSAT 1 24 Oct 22:28:09 22:35:21 37° 250° (WSW) 22:42:32 435.175 FM
Oscar 11 24 Oct 22:28:45 22:32:25 27° 266° (W) 22:36:06 145.825 FM, Beacon 2401.500 USB
SO-50 24 Oct 22:39:34 22:43:31 25° 246° (WSW) 22:47:29 436.795 FM
ZACube-1 24 Oct 23:18:08 23:21:35 21° 268° (W) 23:25:01 437.345 MHz
MaSat-1 24 Oct 23:19:16 23:22:38 25° 111° (ESE) 23:25:46 437.345 MHz
RS-15 24 Oct 23:52:37 00:03:30 67° 315° (NW) 00:14:29 29.354 - 29.394 USB, Beacon 29.352 USB
UOSAT-12 25 Oct 00:03:26 00:07:42 34° 243° (WSW) 00:11:53 437.025 FM, 437.400 FM
MaSat-1 25 Oct 00:54:33 00:58:12 33° 306° (NW) 01:01:30 437.345 MHz
Oscar 19 25 Oct 01:14:42 01:18:09 18° 90° (E) 01:21:36 437.125 CW, 437.150 USB
AO-27 25 Oct 01:34:05 01:35:39 11° 86° (E) 01:37:12 436.795 MHz FM
JAS-1B 25 Oct 01:50:28 01:56:36 38° 98° (E) 02:03:44 435.800 - 435.900 CW/SSB
AO-Echo 25 Oct 01:54:35 01:58:51 24° 92° (E) 02:03:05 ?
Oscar 16 25 Oct 01:59:29 02:04:25 45° 99° (E) 02:09:18 437.025 USB, Beacon 2401.1428
RS-15 25 Oct 02:08:40 02:18:18 34° 346° (NNW) 02:28:08 29.354 - 29.394 USB, Beacon 29.352 USB
Uribyol 2 25 Oct 02:19:25 02:24:00 30° 95° (E) 02:28:32 436.500 FM
ITAMSAT 1 25 Oct 02:25:24 02:30:05 32° 96° (E) 02:34:43 435.822 SSB
PCSat 25 Oct 02:29:07 02:30:01 10° 101° (E) 02:30:56 145.825 MHz
Gurwin Techsat 1B 25 Oct 02:45:48 02:50:20 28° 94° (E) 02:54:49 435.225 FM
Oscar 19 25 Oct 02:52:54 02:57:59 66° 288° (WNW) 03:03:02 437.125 CW, 437.150 USB
OPAL 25 Oct 02:56:07 02:57:02 10° 49° (NE) 02:57:56 ?
TMSAT-1 25 Oct 02:57:02 03:01:28 26° 93° (E) 03:05:51 436.925 FM
AO-27 25 Oct 03:10:44 03:16:01 79° 104° (ESE) 03:21:14 436.795 MHz FM
AO-7 25 Oct 03:25:24 03:30:04 16° 86° (E) 03:34:43 29.400 - 29.500 MHz
AO-Echo 25 Oct 03:32:44 03:37:54 54° 290° (WNW) 03:43:04 ?
Oscar 16 25 Oct 03:39:15 03:43:34 28° 297° (WNW) 03:47:52 437.025 USB, Beacon 2401.1428
JAS-1B 25 Oct 03:41:13 03:47:19 47° 293° (WNW) 03:54:30 435.800 - 435.900 CW/SSB
Sapphire 25 Oct 03:44:53 03:49:57 43° 114° (ESE) 03:55:04 437.095 MHz 1200 baud AX-25 AFSK
Uribyol 2 25 Oct 03:58:42 04:03:35 41° 293° (WNW) 04:08:25 436.500 FM
ITAMSAT 1 25 Oct 04:04:48 04:09:38 39° 294° (WNW) 04:14:26 435.822 SSB
PCSat 25 Oct 04:07:02 04:12:24 68° 119° (ESE) 04:17:49 145.825 MHz
RS-15 25 Oct 04:24:36 04:34:33 37° 20° (NNE) 04:44:47 29.354 - 29.394 USB, Beacon 29.352 USB
Gurwin Techsat 1B 25 Oct 04:25:25 04:30:29 46° 292° (WNW) 04:35:32 435.225 FM
OPAL 25 Oct 04:29:52 04:34:54 57° 68° (ENE) 04:39:54 ?
Oscar 19 25 Oct 04:34:49 04:36:23 11° 308° (NW) 04:37:56 437.125 CW, 437.150 USB
TMSAT-1 25 Oct 04:36:31 04:41:37 48° 291° (WNW) 04:46:41 436.925 FM
AO-27 25 Oct 04:51:30 04:54:55 18° 303° (WNW) 04:58:19 436.795 MHz FM
JAS-2 25 Oct 05:08:28 05:14:55 28° 90° (E) 05:21:23 435.800 - 435.900 CW/SSB, 435.910 FM
AO-7 25 Oct 05:15:59 05:24:19 72° 106° (ESE) 05:32:39 29.400 - 29.500 MHz
Uosat F 25 Oct 05:17:41 05:22:46 71° 103° (ESE) 05:27:47 435.120 FM
Sapphire 25 Oct 05:28:27 05:33:28 37° 315° (NW) 05:38:32 437.095 MHz 1200 baud AX-25 AFSK
PCSat 25 Oct 05:51:44 05:56:19 27° 320° (NW) 06:00:54 145.825 MHz
OPAL 25 Oct 06:10:15 06:14:08 21° 266° (W) 06:18:00 ?
STRAND 1 25 Oct 06:14:40 06:19:41 57° 70° (ENE) 06:24:45 ?
Hamsat 25 Oct 06:20:15 06:24:19 47° 99° (E) 06:28:23 145.90 MHz
RS-15 25 Oct 06:37:46 06:48:55 78° 50° (NE) 07:00:32 29.354 - 29.394 USB, Beacon 29.352 USB
JAS-2 25 Oct 06:52:48 07:00:31 75° 288° (WNW) 07:08:19 435.800 - 435.900 CW/SSB, 435.910 FM
Uosat F 25 Oct 06:57:34 07:01:01 19° 302° (WNW) 07:04:28 435.120 FM
AO-7 25 Oct 07:09:26 07:16:31 33° 307° (NW) 07:23:37 29.400 - 29.500 MHz
Saudisat 1A 25 Oct 07:15:01 07:18:53 31° 117° (ESE) 07:22:46 436.775 MHz
Sapphire 25 Oct 07:16:09 07:18:31 13° 339° (NNW) 07:20:54 437.095 MHz 1200 baud AX-25 AFSK
SO-67 25 Oct 07:23:01 07:26:06 29° 96° (E) 07:29:09 435.3500 MHz FM
PCSat 25 Oct 07:40:38 07:41:43 11° 345° (NNW) 07:42:48 145.825 MHz
STRAND 1 25 Oct 07:55:23 07:59:14 21° 268° (W) 08:03:08 ?
Hamsat 25 Oct 07:56:59 07:59:58 19° 297° (WNW) 08:02:56 145.90 MHz
